Location: Halle (Saale)
(51.4970°N, 11.9688°E)
Time: 00:19:56
(UTC+01:00)

ISS - Visible Passes

Search period start: 09 December 2025 00:00
Search period end: 19 December 2025 00:00
Orbit: 416 x 421 km, 51.6° (Epoch: 08 December)

Date Brightness Start Highest point End Pass type
(mag) Time Alt. Az. Time Alt. Az. Time Alt. Az.
11 Dec -0.3 07:15:32 10° SSE 07:17:08 13° SE 07:18:45 10° ESE visible
13 Dec -1.3 07:14:50 10° SSW 07:17:41 25° SSE 07:20:32 10° E visible
14 Dec -0.9 06:27:30 10° S 06:29:53 18° SE 06:32:17 10° E visible
15 Dec -0.7 05:40:36 10° SSE 05:42:07 13° SE 05:43:38 10° ESE visible
15 Dec -2.7 07:15:01 10° SW 07:18:16 47° SSE 07:21:33 10° E visible
16 Dec -2.2 06:27:15 10° SW 06:30:21 34° SSE 06:33:28 10° E visible
17 Dec -1.8 05:41:23 21° S 05:42:27 25° SSE 05:45:17 10° E visible
17 Dec -3.6 07:15:32 10° WSW 07:18:55 75° SSE 07:22:17 10° E visible
18 Dec -0.7 04:55:45 15° ESE 04:55:45 15° ESE 04:56:55 10° E visible
18 Dec -3.3 06:28:43 20° WSW 06:30:52 60° SSE 06:34:13 10° E visible
